• In Czech Republic
  • List of Countries
  • For 7 days
  • Water Temperature
  • Satellite Maps
  • Weather Map
  • Weather Widgets
  • user-avatar
    Login

    Hourly Weather Kumluca

    Today, 22 June, Friday

    Time Temperature Precipitation Wind Pressure Humidity
    00:00 +25°C° 0 mm 3 mps 758 mmHg 80%
    01:00 +25°C° 0 mm 3 mps 758 mmHg 80%
    02:00 +25°C° 0 mm 3 mps 757 mmHg 77%
    03:00 +25°C° 0 mm 2 mps 757 mmHg 76%
    04:00 +24°C° 0 mm 2 mps 757 mmHg 75%
    05:00 +24°C° 0 mm 2 mps 757 mmHg 75%
    06:00 +26°C° 0 mm 2 mps 757 mmHg 68%
    07:00 +27°C° 0 mm 2 mps 757 mmHg 62%
    08:00 +29°C° 0 mm 2 mps 757 mmHg 56%
    09:00 +30°C° 0 mm 3 mps 757 mmHg 53%
    10:00 +30°C° 0 mm 4 mps 757 mmHg 50%
    11:00 +32°C° 0 mm 4 mps 757 mmHg 47%
    12:00 +33°C° 0 mm 5 mps 757 mmHg 46%
    13:00 +33°C° 0 mm 5 mps 756 mmHg 46%
    14:00 +33°C° 0 mm 6 mps 756 mmHg 45%
    15:00 +33°C° 0 mm 6 mps 756 mmHg 46%
    16:00 +33°C° 0 mm 5 mps 756 mmHg 48%
    17:00 +32°C° 0 mm 5 mps 756 mmHg 49%
    18:00 +30°C° 0 mm 5 mps 756 mmHg 55%
    19:00 +29°C° 0 mm 5 mps 756 mmHg 62%
    20:00 +27°C° 0 mm 4 mps 756 mmHg 68%
    21:00 +27°C° 0 mm 4 mps 756 mmHg 68%
    22:00 +27°C° 0 mm 4 mps 756 mmHg 69%
    23:00 +27°C° 0 mm 3 mps 756 mmHg 70%

    Tomorrow, 23 June, Saturday

    Time Temperature Precipitation Wind Pressure Humidity
    00:00 +26°C° 0 mm 3 mps 756 mmHg 70%
    01:00 +26°C° 0 mm 3 mps 756 mmHg 70%
    02:00 +26°C° 0 mm 3 mps 755 mmHg 70%
    03:00 +26°C° 0 mm 3 mps 755 mmHg 70%
    04:00 +26°C° 0 mm 3 mps 755 mmHg 70%
    05:00 +25°C° 0 mm 3 mps 755 mmHg 71%
    06:00 +27°C° 0 mm 3 mps 755 mmHg 66%
    07:00 +28°C° 0 mm 2 mps 755 mmHg 62%
    08:00 +30°C° 0 mm 2 mps 755 mmHg 58%
    09:00 +31°C° 0 mm 2 mps 755 mmHg 55%
    10:00 +33°C° 0 mm 3 mps 755 mmHg 52%
    11:00 +34°C° 0 mm 3 mps 755 mmHg 49%
    12:00 +33°C° 0.1 mm 4 mps 755 mmHg 50%
    13:00 +33°C° 0.1 mm 4 mps 755 mmHg 51%
    14:00 +33°C° 0.1 mm 5 mps 754 mmHg 52%
    15:00 +33°C° 0.6 mm 5 mps 754 mmHg 54%
    16:00 +33°C° 0.6 mm 5 mps 754 mmHg 55%
    17:00 +33°C° 0.6 mm 5 mps 754 mmHg 56%
    18:00 +30°C° 0.2 mm 4 mps 754 mmHg 62%
    19:00 +29°C° 0.2 mm 4 mps 754 mmHg 68%
    20:00 +28°C° 0.2 mm 3 mps 754 mmHg 74%
    21:00 +28°C° 0 mm 3 mps 755 mmHg 72%
    22:00 +28°C° 0 mm 3 mps 755 mmHg 71%
    23:00 +27°C° 0 mm 3 mps 755 mmHg 70%

    Day after tomorrow, 24 June, Sunday

    Time Temperature Precipitation Wind Pressure Humidity
    00:00 +27°C° 0 mm 3 mps 755 mmHg 70%
    01:00 +27°C° 0 mm 2 mps 754 mmHg 70%
    02:00 +27°C° 0 mm 2 mps 754 mmHg 70%
    03:00 +27°C° 0 mm 2 mps 754 mmHg 70%
    04:00 +26°C° 0 mm 2 mps 754 mmHg 70%
    05:00 +26°C° 0 mm 1 mps 754 mmHg 70%
    06:00 +28°C° 0 mm 1 mps 754 mmHg 64%
    07:00 +29°C° 0 mm 1 mps 754 mmHg 59%
    08:00 +31°C° 0 mm 1 mps 754 mmHg 54%
    09:00 +32°C° 0 mm 1 mps 754 mmHg 52%
    10:00 +34°C° 0 mm 2 mps 754 mmHg 50%
    11:00 +34°C° 0 mm 2 mps 754 mmHg 48%
    12:00 +34°C° 0.1 mm 3 mps 754 mmHg 48%
    13:00 +35°C° 0.1 mm 3 mps 754 mmHg 48%
    14:00 +35°C° 0.1 mm 4 mps 754 mmHg 48%
    15:00 +34°C° 0.1 mm 4 mps 754 mmHg 50%
    16:00 +34°C° 0.1 mm 4 mps 753 mmHg 51%
    17:00 +34°C° 0.1 mm 4 mps 753 mmHg 52%
    18:00 +33°C° 0.1 mm 3 mps 754 mmHg 58%
    19:00 +30°C° 0.1 mm 3 mps 754 mmHg 65%
    20:00 +29°C° 0.1 mm 2 mps 754 mmHg 71%
    21:00 +29°C° 0.1 mm 2 mps 754 mmHg 70%
    22:00 +28°C° 0.1 mm 2 mps 754 mmHg 69%
    23:00 +28°C° 0.1 mm 2 mps 754 mmHg 68%

    25 June, Monday

    Time Temperature Precipitation Wind Pressure Humidity
    00:00 +28°C° 0 mm 2 mps 754 mmHg 68%
    01:00 +28°C° 0 mm 2 mps 754 mmHg 68%
    02:00 +27°C° 0 mm 1 mps 754 mmHg 68%
    03:00 +27°C° 0 mm 1 mps 754 mmHg 69%
    04:00 +27°C° 0 mm 1 mps 753 mmHg 69%
    05:00 +27°C° 0 mm 1 mps 753 mmHg 69%
    06:00 +28°C° 0 mm 1 mps 753 mmHg 64%
    07:00 +30°C° 0 mm 1 mps 754 mmHg 59%
    08:00 +32°C° 0 mm 1 mps 754 mmHg 54%
    09:00 +32°C° 0 mm 1 mps 754 mmHg 50%
    10:00 +34°C° 0 mm 2 mps 754 mmHg 46%
    11:00 +35°C° 0 mm 2 mps 754 mmHg 42%
    12:00 +35°C° 0 mm 3 mps 754 mmHg 42%
    13:00 +35°C° 0 mm 3 mps 754 mmHg 42%
    14:00 +36°C° 0 mm 4 mps 753 mmHg 42%
    15:00 +35°C° 0 mm 3 mps 754 mmHg 45%
    16:00 +35°C° 0 mm 3 mps 754 mmHg 48%
    17:00 +34°C° 0 mm 3 mps 754 mmHg 50%
    18:00 +33°C° 0 mm 3 mps 754 mmHg 58%
    19:00 +30°C° 0 mm 3 mps 754 mmHg 65%
    20:00 +29°C° 0 mm 2 mps 755 mmHg 72%
    21:00 +28°C° 0 mm 2 mps 755 mmHg 72%
    22:00 +28°C° 0 mm 2 mps 755 mmHg 72%
    23:00 +28°C° 0 mm 2 mps 755 mmHg 72%

    26 June, Tuesday

    Time Temperature Precipitation Wind Pressure Humidity
    00:00 +28°C° 0 mm 2 mps 754 mmHg 72%
    01:00 +27°C° 0 mm 2 mps 754 mmHg 72%
    02:00 +27°C° 0 mm 2 mps 754 mmHg 72%
    03:00 +26°C° 0 mm 2 mps 754 mmHg 72%
    04:00 +26°C° 0 mm 2 mps 754 mmHg 73%
    05:00 +26°C° 0 mm 2 mps 754 mmHg 73%
    06:00 +28°C° 0 mm 2 mps 754 mmHg 66%
    07:00 +29°C° 0 mm 2 mps 754 mmHg 58%
    08:00 +31°C° 0 mm 2 mps 754 mmHg 51%
    09:00 +32°C° 0 mm 2 mps 754 mmHg 46%
    10:00 +34°C° 0 mm 3 mps 754 mmHg 42%
    11:00 +35°C° 0 mm 3 mps 754 mmHg 37%
    12:00 +35°C° 0 mm 4 mps 754 mmHg 37%
    13:00 +35°C° 0 mm 5 mps 754 mmHg 37%
    14:00 +36°C° 0 mm 5 mps 753 mmHg 37%
    15:00 +35°C° 0 mm 5 mps 754 mmHg 40%
    16:00 +34°C° 0 mm 5 mps 754 mmHg 43%
    17:00 +34°C° 0 mm 5 mps 754 mmHg 46%
    18:00 +32°C° 0 mm 4 mps 754 mmHg 53%
    19:00 +30°C° 0 mm 3 mps 754 mmHg 61%
    20:00 +28°C° 0 mm 3 mps 754 mmHg 68%
    21:00 +28°C° 0 mm 3 mps 755 mmHg 68%
    22:00 +28°C° 0 mm 3 mps 755 mmHg 67%
    23:00 +27°C° 0 mm 3 mps 755 mmHg 66%

    27 June, Wednesday

    Time Temperature Precipitation Wind Pressure Humidity
    00:00 +27°C° 0 mm 3 mps 754 mmHg 64%
    01:00 +27°C° 0 mm 2 mps 754 mmHg 62%
    02:00 +27°C° 0 mm 2 mps 754 mmHg 60%
    03:00 +27°C° 0 mm 2 mps 754 mmHg 59%
    04:00 +26°C° 0 mm 2 mps 754 mmHg 59%
    05:00 +26°C° 0 mm 1 mps 754 mmHg 59%
    06:00 +28°C° 0 mm 1 mps 754 mmHg 54%
    07:00 +30°C° 0 mm 1 mps 754 mmHg 49%
    08:00 +32°C° 0 mm 1 mps 755 mmHg 45%
    09:00 +34°C° 0 mm 2 mps 754 mmHg 43%
    10:00 +35°C° 0 mm 2 mps 754 mmHg 41%
    11:00 +36°C° 0 mm 2 mps 754 mmHg 40%
    12:00 +36°C° 0 mm 3 mps 754 mmHg 41%
    13:00 +36°C° 0 mm 3 mps 754 mmHg 41%
    14:00 +36°C° 0 mm 4 mps 754 mmHg 42%
    15:00 +36°C° 0 mm 3 mps 754 mmHg 43%
    16:00 +36°C° 0 mm 3 mps 754 mmHg 43%
    17:00 +35°C° 0 mm 3 mps 754 mmHg 44%
    18:00 +34°C° 0 mm 3 mps 754 mmHg 49%
    19:00 +32°C° 0 mm 2 mps 754 mmHg 54%
    20:00 +30°C° 0 mm 2 mps 754 mmHg 59%
    21:00 +30°C° 0 mm 2 mps 754 mmHg 59%
    22:00 +30°C° 0 mm 1 mps 754 mmHg 58%
    23:00 +29°C° 0 mm 1 mps 754 mmHg 57%
    Show more